User: anonymous   Login
Location: Oshawa
(43.9000°N, 78.8670°W)
Time: 07:53:39
(UTC-04:00)
Language:

Cosmos 1408 Rocket - Orbit

View from above orbital plane
View from above orbital plane
View from above satellite
View from above satellite

Ground track
Ground track

The orbit data is extracted from the following two-line orbital elements,

1 13553U 82092B   15142.29980384  .00000346  00000-0  38576-4 0  9990
2 13553 082.5706 219.1475 0022208 029.5719 032.0956 14.83897175764783
Epoch (UTC): 22 May 2015 07:11:43
Eccentricity: 0.0022208
inclination: 82.5706°
perigee height: 601 km
apogee height: 632 km
right ascension of ascending node: 219.1475°
argument of perigee: 29.5719°
revolutions per day: 14.83897175
mean anomaly at epoch: 32.0956°
orbit number at epoch: 76478

The dashed part of the orbit path shows where the satellite is in the earth's shadow,  

DLR